Location: El Escondido
(32.5691°N, 116.4250°W)
Time: 22:40:42
(UTC+00:00)

ISS - Visible Passes

Search period start: 19 June 2024 00:00
Search period end: 29 June 2024 00:00
Orbit: 411 x 425 km, 51.6° (Epoch: 19 June)

Date Brightness Start Highest point End Pass type
(mag) Time Alt. Az. Time Alt. Az. Time Alt. Az.
19 Jun -1.4 11:04:08 12° SSE 11:05:30 15° SE 11:07:30 10° E visible
20 Jun -3.7 11:51:12 13° SW 11:54:02 70° NW 11:57:22 10° NE visible
21 Jun -3.5 11:05:13 40° S 11:06:06 56° SE 11:09:22 10° NE visible
22 Jun -1.8 10:19:09 23° E 10:19:09 23° E 10:21:05 10° ENE visible
22 Jun -1.9 11:52:16 10° W 11:54:56 22° NW 11:57:37 10° NNE visible
23 Jun -2.8 11:05:54 30° WNW 11:06:49 37° NW 11:09:57 10° NNE visible
24 Jun -2.7 10:19:39 44° NNE 10:19:39 44° NNE 10:22:04 10° NE visible
25 Jun -0.7 09:33:19 14° ENE 09:33:19 14° ENE 09:33:56 10° NE visible
25 Jun -1.3 11:06:14 12° WNW 11:07:40 15° NNW 11:09:37 10° N visible
26 Jun -1.7 10:19:49 22° NNW 10:19:49 22° NNW 10:22:07 10° NNE visible
27 Jun -0.8 09:33:19 17° NNE 09:33:19 17° NNE 09:34:18 10° NNE visible
